Weather Roundup
Issued by NWS Chicago, IL

Home | Current Version | Previous Version | Text Only | Print | Product List | Glossary On
Versions: 1 2 3 4 5 6 7 8 9 10 11 12 13 14 15 16 17 18 19 20 21 22 23 24 25 26 27 28 29 30 31 32 33 34 35 36 37 38 39 40 41 42 43 44 45 46 47 48 49 50
000
NZUS59 KLOT 231810
HRRLOT

CHICAGO AREA WEATHER ROUNDUP
NATIONAL WEATHER SERVICE CHICAGO/ROMEOVILLE IL
100 PM CDT SAT AUG 23 2014

NOTE: "FAIR" INDICATES FEW OR NO CLOUDS BELOW 12,000 FEET WITH NO
SIGNIFICANT WEATHER AND/OR OBSTRUCTIONS TO VISIBILITY.

* THESE STATIONS ARE NOT UNDER NWS QUALITY CONTROL. THEY ALSO MAY NOT
  REPORT WEATHER SUCH AS PRECIPITATION OR FOG.

ILZ005-006-012>014-019>023-231900-
NORTHEAST ILLINOIS

CITY           SKY/WX    TMP DP  RH WIND       PRES   REMARKS
OHARE          CLOUDY    83  73  72 NE9       30.00S HX  89
6HR MIN TEMP:  73; 6HR MAX TEMP:  86;

MIDWAY         CLOUDY    85  75  72 E9        29.99S HX  93
6HR MIN TEMP:  78; 6HR MAX TEMP:  87;

AURORA         TSTM      80  74  81 W9        30.03R HX  85
6HR MIN TEMP:  74; 6HR MAX TEMP:  84;

LANSING*       CLOUDY    84  72  66 S3        30.00S HX  90
JOLIET*        CLOUDY    82  72  71 CALM      30.01S HX  87
WAUKEGAN       CLOUDY    77  72  84 NE6       30.01S
6HR MIN TEMP:  71; 6HR MAX TEMP:  80;

DUPAGE AIRPORT CLOUDY    83  74  74 S5        30.01S HX  89
6HR MIN TEMP:  73; 6HR MAX TEMP:  86;

WHEELING       CLOUDY    82  73  74 NE8       30.02S HX  87
6HR MIN TEMP:  73; 6HR MAX TEMP:  85;

KANKAKEE*      CLOUDY    84  75  76 CALM      30.00S HX  92
MORRIS*        CLOUDY    74  70  87 W20G35    30.03R
LEWIS AIRPORT* CLOUDY    82  74  79 SW5       30.01S HX  87
NORTHERLY IS     N/A     74  72  93 N7          N/A
$$

WIZ051-052-058>065-066-070>072-231900-
SOUTHEAST WISCONSIN

CITY           SKY/WX    TMP DP  RH WIND       PRES   REMARKS
MILWAUKEE      CLOUDY    73  70  90 E6        30.03S FOG
6HR MIN TEMP:  70; 6HR MAX TEMP:  74;

KENOSHA*       CLOUDY    78  74  87 E8        30.02F FOG     HX  81
RACINE*        CLOUDY    74  71  91 SE6       30.04F FOG
BURLINGTON     CLOUDY    77  71  82 SE3       30.02S
WAUKESHA       CLOUDY    75  72  88 SE8       30.03S FOG
WEST BEND      CLOUDY    77  68  73 E6        30.03S
$$

INZ001>003-010>013-019-020-231900-
NORTHWEST INDIANA

CITY           SKY/WX    TMP DP  RH WIND       PRES   REMARKS
GARY*          CLOUDY    82  75  78 NE9       30.01S HAZE    HX  89
MICHIGAN CITY* NOT AVBL
RENSSELAER*    NOT AVBL
VALPARAISO     PTSUNNY   85  73  67 CALM      30.01F HX  91
$$

LMZ740>746-231900-
SOUTHERN LAKE MICHIGAN

STATION/POSITION TIME  SKY/WX   TEMP WIND        PRES    VSBY
                                AIR  DIR/SP/G
                 (UTC)          (F)  (DEG/KT/KT) (MB)    (MI)
HARRISON CRIB    1800            72   40/  9/ 11   N/A
BURNHAM HARBOR   1800            74   30/  5/  9   N/A
CALUMET HARBOR   1800            75   10/  7/  9 1014.9F
BURNS HARBOR     NOT AVBL
MICHIGAN CITY    1800            76   10/ 12/ 13   N/A
$$

ABBREVIATIONS USED IN REMARKS
   TC - TEMPERATURE IN CELSIUS
  WCI - WIND CHILL INDEX
   HX - HEAT INDEX
  VSB - VISIBILITY
$$


USA.gov is the U.S. government's official web portal to all federal, state and local government web resources and services.